Regional Weather Roundup
Issued by NWS State College, PA

Home | Current Version | Previous Version | Graphics & Text | Print | Product List | Glossary Off
Versions: 1 2 3 4 5 6 7 8 9 10 11 12 13 14 15 16 17 18 19 20 21 22 23 24 25 26 27 28 29 30 31 32 33 34 35 36 37 38 39 40 41 42 43 44 45 46 47 48 49 50

000
ASUS41 KCTP 261503
RWRCTP

REGIONAL WEATHER ROUNDUP
NATIONAL WEATHER SERVICE STATE COLLEGE PA
1100 AM EDT FRI AUG 26 2016

Note: "fair" indicates few or no clouds below 12,000 feet with no
significant weather and/or obstructions to visibility.

* = STATION THAT DOES NOT REPORT PRECIPITATION /E.G. RAIN...SNOW...ETC/
    THUNDER OR FOG.

PAZ002>004-007>009-013>016-020>023-029>032-261600-
WESTERN PENNSYLVANIA

CITY           SKY/WX    TMP DP  RH WIND       PRES   REMARKS
ERIE           MOSUNNY   78  68  71 W7        30.13R
MEADVILLE      MOSUNNY   74  64  71 VRB6      30.17R
FRANKLIN*        N/A     77  64  65 W5        30.18R
NEW CASTLE     PTSUNNY   77  69  76 VRB3      30.17R
BEAVER COUNTY  CLOUDY    77  70  78 W5        30.17R
BUTLER*        NOT AVBL
PITTSBURGH INT PTSUNNY   78  68  71 VRB6      30.16R
PITTSBURGH     MOSUNNY   80  68  66 W5        30.15R
INDIANA*       PTSUNNY   77  72  83 NW7       30.19R
LATROBE        PTSUNNY   79  72  78 SW8       30.17R
WASHINGTON CO* MOSUNNY   81  70  69 NW6       30.17R
$$

PAZ004>006-010>012-017>019-024>028-033>037-041-042-045-046-049>053-261600-
CENTRAL PENNSYLVANIA

CITY           SKY/WX    TMP DP  RH WIND       PRES   REMARKS
BRADFORD       MOSUNNY   76  65  68 NW10      30.17S
DUBOIS         MOSUNNY   76  68  76 W6        30.16S
CLEARFIELD     MOSUNNY   80  69  69 NW7       30.15S
JOHNSTOWN      MOSUNNY   76  68  76 NW10      30.20R
ALTOONA        PTSUNNY   80  69  69 NW9       30.16R
STATE COLLEGE  PTSUNNY   79  68  69 NW6       30.13R
WILLIAMSPORT   SUNNY     84  63  49 NW13      30.06R
SELINSGROVE    PTSUNNY   84  72  67 VRB6      30.08R
FT INDIANTOWN  MOSUNNY   84  70  62 NW10      30.06S
CAPITAL CITY   MOSUNNY   86  70  58 W12       30.06S
HARRISBURG     PTSUNNY   83  73  72 NW12      30.06R
YORK           MOSUNNY   85  69  58 NW7       30.07S
$$

PAZ038>040-043-044-047-048-054-055-060>062-067>071-261600-
EASTERN PENNSYLVANIA

CITY           SKY/WX    TMP DP  RH WIND       PRES   REMARKS
SCRANTON       PTSUNNY   80  69  69 NW13      30.08R
MOUNT POCONO   MOSUNNY   77  67  71 NW9G21    30.10S
ALLENTOWN      MOSUNNY   85  70  60 NW6       30.03S
QUAKERTOWN*    MOSUNNY   84  70  61 CALM      30.05S
READING        MOSUNNY   85  70  60 NW9       30.04S
LANCASTER      MOSUNNY   85  73  67 NW14      30.06R
COATESVILLE    MOSUNNY   84  72  65 W14       30.08R
POTTSTOWN      SUNNY     84  70  62 NW14G22   30.05S
BLUE BELL      MOSUNNY   84  72  65 NW8       30.02S
DOYLESTOWN     SUNNY     88  72  58 N7        30.02S
WILLOW GROVE   NOT AVBL
NORTH PHILA    MOSUNNY   89  72  56 NW14      30.02F HX  96
PHILADELPHIA   MOSUNNY   88  70  55 NW13G21   30.02S
$$



USA.gov is the U.S. government's official web portal to all federal, state and local government web resources and services.